| time (UTC) | temp F | wind direction | speed knots | gust knots | rain 1hr in | rain 24hr in | rain mn in | humidity % | barometer mb |
| 20260508004534 | 49 | 45 | 2.6 | 4.3 | 0.00 | 0.00 | 0.00 | 83 | 1016.5 |
| 20260508003534 | 49 | 45 | 2.6 | 5.2 | 0.00 | 0.00 | 0.00 | 83 | 1016.5 |
| 20260508002533 | 49 | 45 | 2.6 | 3.5 | 0.00 | 0.00 | 0.00 | 83 | 1016.5 |
| 20260508001519 | 49 | 45 | 2.6 | 4.3 | 0.00 | 0.00 | 0.00 | 83 | 1016.7 |
| 20260508000519 | 48 | 45 | 1.7 | 3.5 | 0.00 | 0.00 | 0.00 | 83 | 1016.7 |
| 20260507235518 | 48 | 68 | 2.6 | 4.3 | 0.00 | 0.00 | 0.00 | 83 | 1016.7 |
| 20260507234523 | 48 | 45 | 2.6 | 4.3 | 0.00 | 0.00 | 0.00 | 84 | 1016.8 |
| 20260507233518 | 48 | 45 | 2.6 | 4.3 | 0.00 | 0.00 | 0.00 | 84 | 1016.9 |
| 20260507232519 | 48 | 45 | 1.7 | 4.3 | 0.00 | 0.00 | 0.00 | 85 | 1016.9 |
| 20260507231549 | 48 | 45 | 2.6 | 4.3 | 0.00 | 0.00 | 0.00 | 85 | 1017.0 |
| 20260507230519 | 48 | 45 | 2.6 | 4.3 | 0.00 | 0.00 | 0.00 | 85 | 1017.0 |
| 20260507225518 | 48 | 45 | 2.6 | 5.2 | 0.00 | 0.00 | 0.00 | 85 | 1016.9 |
| 20260507224523 | 49 | 45 | 1.7 | 4.3 | 0.00 | 0.00 | 0.00 | 85 | 1016.9 |
| 20260507223520 | 49 | 45 | 2.6 | 4.3 | 0.00 | 0.00 | 0.00 | 84 | 1017.0 |
| 20260507222534 | 49 | 45 | 2.6 | 4.3 | 0.00 | 0.00 | 0.00 | 84 | 1017.1 |
| 20260507221518 | 49 | 23 | 1.7 | 3.5 | 0.00 | 0.00 | 0.00 | 84 | 1017.2 |
| 20260507220519 | 48 | 45 | 1.7 | 2.6 | 0.00 | 0.00 | 0.00 | 84 | 1017.2 |
| 20260507215533 | 48 | 45 | 1.7 | 2.6 | 0.00 | 0.00 | 0.00 | 83 | 1017.2 |
| 20260507214548 | 48 | 45 | 0.9 | 2.6 | 0.00 | 0.00 | 0.00 | 83 | 1017.2 |
| 20260507213555 | 48 | 45 | 2.6 | 4.3 | 0.00 | 0.00 | 0.00 | 83 | 1017.1 |
| 20260507212534 | 48 | 45 | 1.7 | 5.2 | 0.00 | 0.00 | 0.00 | 82 | 1017.3 |
| 20260507211518 | 48 | 0 | 0.9 | 1.7 | 0.00 | 0.00 | 0.00 | 82 | 1017.5 |
| 20260507210534 | 48 | 0.0 | 0.9 | 0.00 | 0.00 | 0.00 | 82 | 1017.5 | |
| 20260507205658 | 49 | 0.0 | 0.9 | 0.00 | 0.00 | 0.00 | 81 | 1017.5 | |
| 20260507204519 | 49 | 0.0 | 0.9 | 0.00 | 0.00 | 0.00 | 81 | 1017.5 | |
| 20260507203533 | 50 | 0.0 | 0.9 | 0.00 | 0.00 | 0.00 | 80 | 1017.4 | |
| 20260507202519 | 51 | 0.0 | 0.9 | 0.00 | 0.00 | 0.00 | 79 | 1017.3 | |
| 20260507201520 | 51 | 45 | 0.9 | 1.7 | 0.00 | 0.00 | 0.00 | 78 | 1017.3 |
| 20260507200553 | 52 | 0.0 | 0.0 | 0.00 | 0.00 | 0.00 | 78 | 1017.2 | |
| 20260507195541 | 52 | 180 | 0.9 | 1.7 | 0.00 | 0.00 | 0.00 | 76 | 1016.9 |
| 20260507194614 | 53 | 180 | 0.9 | 1.7 | 0.00 | 0.00 | 0.00 | 75 | 1016.7 |
| 20260507193533 | 53 | 135 | 0.9 | 0.9 | 0.00 | 0.00 | 0.00 | 74 | 1016.7 |
| 20260507192518 | 54 | 135 | 0.9 | 1.7 | 0.00 | 0.00 | 0.00 | 73 | 1016.5 |
| 20260507191518 | 54 | 113 | 1.7 | 3.5 | 0.00 | 0.00 | 0.00 | 72 | 1016.4 |
| 20260507190520 | 54 | 135 | 2.6 | 3.5 | 0.00 | 0.00 | 0.00 | 71 | 1016.4 |
| 20260507185520 | 55 | 113 | 2.6 | 4.3 | 0.00 | 0.00 | 0.00 | 69 | 1016.3 |
| 20260507184520 | 55 | 113 | 3.5 | 5.2 | 0.00 | 0.00 | 0.00 | 70 | 1016.2 |
| 20260507183520 | 55 | 135 | 2.6 | 4.3 | 0.00 | 0.00 | 0.00 | 67 | 1016.2 |
| 20260507182519 | 55 | 158 | 3.5 | 4.3 | 0.00 | 0.00 | 0.00 | 69 | 1016.2 |
| 20260507181534 | 56 | 158 | 3.5 | 5.2 | 0.00 | 0.00 | 0.00 | 68 | 1016.2 |
| 20260507180521 | 56 | 158 | 4.3 | 6.1 | 0.00 | 0.00 | 0.00 | 66 | 1016.1 |
| 20260507175520 | 57 | 113 | 3.5 | 5.2 | 0.00 | 0.00 | 0.00 | 65 | 1016.2 |
| 20260507174518 | 57 | 135 | 3.5 | 5.2 | 0.00 | 0.00 | 0.00 | 66 | 1016.2 |
| 20260507173534 | 57 | 135 | 3.5 | 5.2 | 0.00 | 0.00 | 0.00 | 63 | 1016.2 |
| 20260507172630 | 57 | 135 | 4.3 | 6.1 | 0.00 | 0.00 | 0.00 | 64 | 1016.3 |
| 20260507171534 | 57 | 158 | 3.5 | 5.2 | 0.00 | 0.00 | 0.00 | 64 | 1016.4 |
| 20260507170521 | 57 | 135 | 4.3 | 6.1 | 0.00 | 0.00 | 0.00 | 63 | 1016.4 |
| 20260507165519 | 58 | 158 | 4.3 | 7.0 | 0.00 | 0.00 | 0.00 | 64 | 1016.4 |
| 20260507164522 | 58 | 158 | 5.2 | 7.0 | 0.00 | 0.00 | 0.00 | 64 | 1016.4 |
| 20260507163521 | 57 | 158 | 4.3 | 7.0 | 0.00 | 0.00 | 0.00 | 65 | 1016.4 |
| 20260507162521 | 57 | 203 | 5.2 | 7.8 | 0.00 | 0.00 | 0.00 | 63 | 1016.4 |
| 20260507161535 | 58 | 158 | 3.5 | 8.7 | 0.00 | 0.00 | 0.00 | 63 | 1016.4 |
| 20260507160536 | 57 | 158 | 5.2 | 7.8 | 0.00 | 0.00 | 0.00 | 61 | 1016.4 |
| 20260507155520 | 57 | 203 | 4.3 | 8.7 | 0.00 | 0.00 | 0.00 | 64 | 1016.5 |
| 20260507154520 | 57 | 203 | 5.2 | 7.8 | 0.00 | 0.00 | 0.00 | 65 | 1016.6 |
| 20260507153535 | 57 | 203 | 4.3 | 7.0 | 0.00 | 0.00 | 0.00 | 66 | 1016.6 |
| 20260507152520 | 57 | 180 | 4.3 | 6.1 | 0.00 | 0.00 | 0.00 | 67 | 1016.6 |
| 20260507151540 | 56 | 203 | 6.1 | 7.8 | 0.00 | 0.00 | 0.00 | 67 | 1016.6 |
| 20260507150520 | 57 | 180 | 6.1 | 8.7 | 0.00 | 0.00 | 0.00 | 67 | 1016.7 |
| 20260507145525 | 57 | 225 | 7.0 | 10.4 | 0.00 | 0.00 | 0.00 | 67 | 1016.8 |
| 20260507144534 | 57 | 225 | 7.0 | 11.3 | 0.00 | 0.00 | 0.00 | 65 | 1016.7 |
| 20260507143519 | 57 | 225 | 6.1 | 8.7 | 0.00 | 0.00 | 0.00 | 66 | 1016.8 |
| 20260507142525 | 57 | 225 | 7.0 | 10.4 | 0.00 | 0.00 | 0.00 | 65 | 1016.8 |
| 20260507141520 | 57 | 225 | 6.1 | 9.6 | 0.00 | 0.00 | 0.00 | 64 | 1016.8 |
| 20260507140535 | 57 | 158 | 4.3 | 7.0 | 0.00 | 0.00 | 0.00 | 61 | 1016.8 |
| 20260507135519 | 57 | 158 | 4.3 | 7.8 | 0.00 | 0.00 | 0.00 | 63 | 1016.9 |
| 20260507134520 | 57 | 203 | 5.2 | 7.8 | 0.00 | 0.00 | 0.00 | 64 | 1016.9 |
| 20260507133520 | 57 | 158 | 5.2 | 9.6 | 0.00 | 0.00 | 0.00 | 66 | 1016.9 |
| 20260507132534 | 56 | 225 | 7.8 | 11.3 | 0.00 | 0.00 | 0.00 | 64 | 1016.9 |
| 20260507131520 | 57 | 225 | 8.7 | 13.9 | 0.00 | 0.00 | 0.00 | 65 | 1017.0 |
| 20260507130534 | 58 | 203 | 7.0 | 12.2 | 0.00 | 0.00 | 0.00 | 62 | 1017.1 |
| 20260507125519 | 58 | 203 | 7.8 | 13.9 | 0.00 | 0.00 | 0.00 | 64 | 1017.0 |
| 20260507124559 | 58 | 203 | 7.0 | 10.4 | 0.00 | 0.00 | 0.00 | 61 | 1017.1 |
| 20260507123520 | 57 | 158 | 7.0 | 11.3 | 0.00 | 0.00 | 0.00 | 63 | 1017.0 |
| 20260507122519 | 58 | 203 | 7.8 | 11.3 | 0.00 | 0.00 | 0.00 | 63 | 1016.9 |
| 20260507121539 | 57 | 158 | 8.7 | 12.2 | 0.00 | 0.00 | 0.00 | 66 | 1017.0 |
| 20260507120520 | 58 | 158 | 8.7 | 12.2 | 0.00 | 0.00 | 0.00 | 66 | 1017.0 |
| 20260507115535 | 58 | 158 | 9.6 | 13.0 | 0.00 | 0.00 | 0.00 | 63 | 1017.0 |
| 20260507114534 | 58 | 135 | 6.1 | 13.9 | 0.00 | 0.00 | 0.00 | 62 | 1016.9 |
| 20260507113540 | 58 | 113 | 5.2 | 10.4 | 0.00 | 0.00 | 0.00 | 58 | 1016.9 |
| 20260507112549 | 58 | 135 | 6.1 | 9.6 | 0.00 | 0.00 | 0.00 | 60 | 1016.9 |
| 20260507111600 | 58 | 113 | 7.8 | 13.0 | 0.00 | 0.00 | 0.00 | 59 | 1016.8 |
| 20260507110519 | 58 | 113 | 6.1 | 8.7 | 0.00 | 0.00 | 0.00 | 63 | 1017.0 |
| 20260507105519 | 58 | 113 | 6.1 | 9.6 | 0.00 | 0.00 | 0.00 | 61 | 1017.0 |
| 20260507104535 | 57 | 135 | 5.2 | 9.6 | 0.00 | 0.00 | 0.00 | 61 | 1017.0 |
| 20260507103534 | 57 | 113 | 7.0 | 11.3 | 0.00 | 0.00 | 0.00 | 63 | 1017.0 |
| 20260507102520 | 57 | 135 | 6.1 | 11.3 | 0.00 | 0.00 | 0.00 | 64 | 1017.2 |
| 20260507101519 | 57 | 135 | 5.2 | 10.4 | 0.00 | 0.00 | 0.00 | 64 | 1017.3 |
| 20260507100520 | 57 | 90 | 3.5 | 6.1 | 0.00 | 0.00 | 0.00 | 62 | 1017.2 |
| 20260507095540 | 56 | 113 | 6.1 | 10.4 | 0.00 | 0.00 | 0.00 | 65 | 1017.3 |
| 20260507094519 | 56 | 135 | 4.3 | 8.7 | 0.00 | 0.00 | 0.00 | 66 | 1017.3 |
| 20260507093535 | 57 | 90 | 5.2 | 8.7 | 0.00 | 0.00 | 0.00 | 62 | 1017.4 |
| 20260507092534 | 57 | 113 | 5.2 | 8.7 | 0.00 | 0.00 | 0.00 | 64 | 1017.2 |
| 20260507091540 | 56 | 135 | 4.3 | 8.7 | 0.00 | 0.00 | 0.00 | 66 | 1017.1 |
| 20260507090519 | 56 | 135 | 6.1 | 8.7 | 0.00 | 0.00 | 0.00 | 67 | 1017.1 |
| 20260507085549 | 56 | 135 | 5.2 | 7.8 | 0.00 | 0.00 | 0.00 | 68 | 1017.2 |
| 20260507084534 | 56 | 113 | 4.3 | 7.0 | 0.00 | 0.00 | 0.00 | 67 | 1017.3 |
| 20260507083541 | 55 | 135 | 4.3 | 7.0 | 0.00 | 0.00 | 0.00 | 70 | 1017.2 |
| 20260507082520 | 55 | 135 | 5.2 | 7.8 | 0.00 | 0.00 | 0.00 | 71 | 1017.1 |
| 20260507081519 | 55 | 113 | 3.5 | 6.1 | 0.00 | 0.00 | 0.00 | 70 | 1017.1 |
| 20260507080519 | 55 | 90 | 4.3 | 7.0 | 0.00 | 0.00 | 0.00 | 72 | 1017.0 |
| 20260507075519 | 54 | 135 | 3.5 | 7.8 | 0.00 | 0.00 | 0.00 | 72 | 1017.1 |
| 20260507074539 | 54 | 113 | 4.3 | 8.7 | 0.00 | 0.00 | 0.00 | 72 | 1016.9 |
| 20260507073519 | 54 | 113 | 5.2 | 8.7 | 0.00 | 0.00 | 0.00 | 73 | 1017.0 |
| 20260507072542 | 53 | 90 | 4.3 | 6.1 | 0.00 | 0.00 | 0.00 | 74 | 1016.8 |
| 20260507071519 | 53 | 90 | 5.2 | 7.8 | 0.00 | 0.00 | 0.00 | 75 | 1016.7 |
| 20260507070618 | 53 | 90 | 4.3 | 7.8 | 0.00 | 0.00 | 0.00 | 74 | 1016.7 |
| 20260507065520 | 52 | 90 | 3.5 | 6.1 | 0.00 | 0.00 | 0.00 | 76 | 1016.7 |
| 20260507064519 | 52 | 90 | 4.3 | 5.2 | 0.00 | 0.00 | 0.00 | 76 | 1016.7 |
| 20260507063534 | 51 | 90 | 2.6 | 4.3 | 0.00 | 0.00 | 0.00 | 78 | 1016.6 |
| 20260507062533 | 51 | 90 | 2.6 | 3.5 | 0.00 | 0.00 | 0.00 | 78 | 1016.6 |
| 20260507061539 | 50 | 68 | 1.7 | 3.5 | 0.00 | 0.00 | 0.00 | 80 | 1016.5 |
| 20260507060548 | 50 | 68 | 0.9 | 2.6 | 0.00 | 0.00 | 0.00 | 81 | 1016.6 |
| 20260507055533 | 49 | 68 | 0.9 | 2.6 | 0.00 | 0.00 | 0.00 | 81 | 1016.4 |
| 20260507054544 | 48 | 0.0 | 0.9 | 0.00 | 0.00 | 0.00 | 82 | 1016.4 | |
| 20260507053519 | 47 | 68 | 0.9 | 0.9 | 0.00 | 0.00 | 0.00 | 83 | 1016.4 |
| 20260507052541 | 46 | 0.0 | 0.9 | 0.00 | 0.00 | 0.00 | 85 | 1016.3 | |
| 20260507051520 | 45 | 90 | 0.9 | 1.7 | 0.00 | 0.00 | 0.00 | 85 | 1016.3 |
| 20260507050518 | 45 | 0.0 | 0.9 | 0.00 | 0.00 | 0.00 | 87 | 1016.2 | |
| 20260507045518 | 44 | 0.0 | 0.9 | 0.00 | 0.00 | 0.00 | 87 | 1016.1 | |
| 20260507044520 | 44 | 0.0 | 0.9 | 0.00 | 0.00 | 0.00 | 87 | 1016.2 | |
| 20260507043540 | 44 | 0.0 | 0.0 | 0.00 | 0.00 | 0.00 | 86 | 1016.1 | |
| 20260507042518 | 44 | 0.0 | 0.9 | 0.00 | 0.00 | 0.00 | 86 | 1016.1 | |
| 20260507041519 | 44 | 0.0 | 0.9 | 0.00 | 0.00 | 0.00 | 86 | 1016.1 | |
| 20260507040520 | 44 | 0.0 | 0.9 | 0.00 | 0.00 | 0.00 | 85 | 1016.1 | |
| 20260507035558 | 44 | 0.0 | 0.9 | 0.00 | 0.00 | 0.00 | 85 | 1016.1 | |
| 20260507034518 | 44 | 0.0 | 0.9 | 0.00 | 0.00 | 0.00 | 85 | 1016.1 | |
| 20260507033535 | 44 | 0.0 | 0.9 | 0.00 | 0.00 | 0.00 | 85 | 1016.1 | |
| 20260507032520 | 44 | 0.0 | 0.9 | 0.00 | 0.00 | 0.00 | 84 | 1016.0 | |
| 20260507031614 | 44 | 0.0 | 0.9 | 0.00 | 0.00 | 0.00 | 84 | 1016.0 | |
| 20260507030554 | 44 | 0.0 | 0.9 | 0.00 | 0.00 | 0.00 | 84 | 1016.0 | |
| 20260507025533 | 44 | 0.0 | 0.9 | 0.00 | 0.00 | 0.00 | 84 | 1015.9 | |
| 20260507024538 | 44 | 0.0 | 1.7 | 0.00 | 0.00 | 0.00 | 84 | 1015.9 | |
| 20260507023548 | 44 | 0.0 | 0.9 | 0.00 | 0.00 | 0.00 | 85 | 1015.9 | |
| 20260507022520 | 44 | 0.0 | 0.9 | 0.00 | 0.00 | 0.00 | 84 | 1015.8 | |
| 20260507021520 | 45 | 0.0 | 0.9 | 0.00 | 0.00 | 0.00 | 85 | 1015.8 | |
| 20260507020520 | 45 | 0.0 | 0.9 | 0.00 | 0.00 | 0.00 | 84 | 1015.7 | |
| 20260507015549 | 45 | 0.0 | 0.9 | 0.00 | 0.00 | 0.00 | 85 | 1015.7 | |
| 20260507014520 | 45 | 0.0 | 0.9 | 0.00 | 0.00 | 0.00 | 84 | 1015.6 | |
| 20260507013519 | 45 | 0.0 | 0.9 | 0.00 | 0.00 | 0.00 | 84 | 1015.7 | |
| 20260507012557 | 45 | 0.0 | 0.0 | 0.00 | 0.00 | 0.00 | 84 | 1015.7 | |
| 20260507011518 | 45 | 0.0 | 0.0 | 0.00 | 0.00 | 0.00 | 83 | 1015.8 | |
| 20260507010540 | 45 | 0.0 | 0.0 | 0.00 | 0.00 | 0.00 | 82 | 1015.8 | |
| 20260507005518 | 46 | 0.0 | 0.9 | 0.00 | 0.00 | 0.00 | 82 | 1015.8 |